SCP
1 1 1 1 1 1 0 0 0 0 0 0 0 1 1 1 1 1 0 0 0 0 1 1 1 1 1 1 1 1 1 1 1 1 1 1 1 1 1 1 1 1 1
1 1 1 1 1 1 1 0 0 0 0 0 0 0 1 1 1 0 0 0 0 0 1 1 1 1 1 1 1 1 1 1 1 1 1 1 1 1 1 1 1 1 1
1 1 0 1 1 1 1 0 0 0 0 0 0 0 0 1 1 0 0 0 0 0 1 1 1 1 1 1 1 1 1 1 1 1 1 1 1 1 1 1 1 1 1
1 1 0 0 0 1 1 0 0 0 0 0 0 0 0 0 0 0 0 0 0 0 0 1 0 0 0 0 1 1 1 1 1 1 1 1 1 1 1 1 1 1 1
1 1 0 0 0 0 0 0 0 0 0 0 0 0 0 0 0 0 0 0 0 0 0 0 0 0 0 0 0 0 0 1 1 1 1 1 1 1 1 1 1 1 1
1 1 1 0 0 0 0 0 0 0 0 0 0 0 0 0 0 0 0 0 0 0 0 0 0 0 0 0 0 0 0 1 1 1 1 1 1 1 1 0 1 1 1
0 1 1 0 0 0 0 0 0 0 0 0 0 0 0 0 0 0 0 0 0 0 0 0 0 0 0 0 0 0 0 1 1 1 1 1 1 1 1 1 1 1 1
0 0 0 0 0 0 0 0 0 0 0 0 0 0 0 0 0 0 0 0 0 0 0 0 0 0 0 0 0 0 0 1 1 1 1 1 1 1 1 1 1 1 1
0 0 0 0 0 0 0 0 0 0 0 0 0 0 0 0 0 0 0 0 0 0 0 0 0 0 0 0 0 0 0 1 1 1 1 1 1 1 1 1 1 1 1
0 0 0 0 0 0 0 0 0 0 0 0 0 0 0 0 0 0 0 0 0 0 0 0 0 0 0 0 0 0 0 0 1 1 1 1 1 1 0 0 0 0 0
0 0 0 0 0 0 0 0 0 0 0 0 0 0 0 0 0 0 0 0 0 0 0 0 0 0 0 0 0 0 0 0 1 1 1 0 0 0 0 0 0 0 0
0 0 0 0 0 0 0 0 0 0 0 0 0 0 0 0 0 0 0 0 0 0 0 0 0 0 0 0 0 0 0 0 0 0 0 0 0 0 0 0 0 0 0
0 0 0 0 0 0 0 0 0 0 0 0 0 0 0 0 0 0 0 0 0 0 0 0 0 0 0 0 0 0 0 0 0 0 0 0 0 0 0 0 0 0 0
0 0 0 0 0 0 0 0 0 0 0 0 0 0 0 0 0 0 0 0 0 0 0 0 0 0 0 0 0 0 0 0 0 0 0 0 0 0 0 0 0 0 0
0 0 0 0 0 0 0 0 0 0 0 0 0 0 0 0 0 0 0 0 0 0 0 0 0 0 0 0 0 0 0 0 0 0 0 0 0 0 0 0 0 0 0
0 0 0 0 0 0 0 0 0 0 0 0 0 0 0 0 0 0 0 0 0 0 0 0 0 0 0 0 0 0 0 0 0 0 0 0 0 0 0 0 0 0 0
0 0 0 0 0 0 0 0 0 0 0 0 0 0 0 0 0 0 0 0 0 0 0 0 0 0 0 0 0 0 0 0 0 0 0 0 0 0 0 0 0 0 0
0 0 0 0 0 0 0 0 0 0 0 0 0 0 0 0 0 0 0 0 0 0 0 0 0 0 0 0 0 0 0 0 0 0 0 0 0 0 0 0 0 0 0
0 0 0 0 0 0 0 0 0 0 0 0 0 0 0 0 0 0 0 0 0 0 0 0 0 0 0 0 0 0 0 0 0 0 0 0 0 0 0 0 0 0 0
0 0 0 0 0 0 0 0 0 0 0 0 0 0 0 0 0 0 0 0 0 0 0 0 0 0 0 0 0 0 0 0 0 0 0 0 0 0 0 0 0 0 0
0 0 0 0 0 0 0 0 0 0 0 0 0 0 0 0 0 0 0 0 0 0 0 0 0 0 0 0 0 0 0 0 0 0 0 0 0 0 0 0 0 0 0
0 0 0 0 0 0 0 0 0 0 0 0 0 0 0 0 0 0 0 0 0 0 0 0 0 0 0 0 0 0 0 0 0 0 0 0 0 0 0 0 0 0 0
0 0 0 0 0 0 0 0 0 0 0 0 0 0 0 0 0 0 0 0 0 0 0 0 0 0 0 0 0 0 0 0 0 0 0 0 0 0 0 0 0 0 0
0 0 0 0 0 0 0 0 0 0 0 0 0 0 0 0 0 0 0 0 0 0 0 0 0 0 0 0 0 0 0 0 0 0 0 0 0 0 0 0 0 0 0
0 0 0 0 0 0 0 0 0 0 0 0 0 0 0 0 0 0 0 0 0 0 0 0 0 0 0 0 0 0 0 0 0 0 0 0 0 0 0 0 0 0 0
0 0 0 0 0 0 0 0 0 0 0 0 0 0 0 0 0 0 0 0 0 0 0 0 0 0 0 0 0 0 0 0 0 0 0 0 0 0 0 0 0 0 0
Wind_Speed
2 2 1 2 2 1 1 2 2 2 2 2 2 3 2 2 2 2 2 4 4 5 5 5 5 5 5 5 5 6 6 6 6 6 7 7 7 7 6 7 7 6 7
2 2 2 2 2 2 2 1 2 2 2 2 2 3 2 2 2 2 1 2 4 4 4 5 5 5 5 5 6 6 6 7 6 7 7 7 8 7 8 8 7 7 7
2 2 2 1 1 1 2 2 2 2 2 2 2 3 3 2 2 1 1 1 2 3 4 4 5 6 6 6 6 6 6 7 7 7 8 8 8 9 9 9 8 8 8
3 2 2 1 2 2 1 1 1 2 2 2 2 2 2 2 2 1 1 1 1 2 3 5 5 6 7 7 7 7 7 7 7 8 8 8 9 9 9 9 9 9 9
3 2 2 2 2 2 2 2 2 1 1 2 2 2 2 1 1 1 1 2 1 1 1 3 5 5 7 8 8 8 8 8 7 8 8 9 9 10 10 10 10 9 10
3 3 2 2 2 2 2 2 2 2 1 1 2 3 2 2 1 0 0 1 1 2 2 2 2 3 5 7 8 9 10 10 9 8 9 9 10 10 11 11 11 11 11
2 2 2 2 2 2 1 2 2 2 2 2 2 2 3 2 1 1 0 1 1 1 2 2 2 2 2 6 8 9 10 10 10 10 10 10 11 11 11 11 12 12 12
2 2 2 1 1 1 2 2 1 1 1 2 1 1 2 3 2 1 1 0 1 1 1 2 2 2 2 2 5 8 10 10 11 11 11 12 12 12 12 12 12 12 13
1 2 1 1 1 1 0 0 1 1 1 1 1 1 1 1 2 2 2 1 1 1 1 1 1 2 2 2 2 5 9 10 11 12 12 12 13 13 13 12 12 13 13
1 1 1 1 1 1 0 0 1 1 1 1 1 1 1 0 1 3 3 2 2 2 2 2 2 2 2 2 3 6 8 10 11 12 13 13 14 14 14 14 13 13 13
1 1 1 1 0 0 0 0 0 0 0 1 0 1 1 2 1 1 3 3 3 2 2 2 2 2 2 2 2 4 8 10 11 12 13 14 14 15 15 15 15 14 14
1 1 1 1 1 1 1 1 1 1 1 1 1 1 1 1 1 1 3 4 4 3 3 2 2 2 2 2 3 7 9 11 12 12 13 13 14 15 15 15 15 15 15
1 2 1 1 1 1 1 2 1 2 2 2 2 1 1 1 1 2 3 4 5 4 3 2 2 2 2 1 2 7 9 11 12 13 13 14 14 14 14 15 15 15 15
2 2 2 2 2 2 2 1 1 2 2 2 2 2 1 1 1 1 2 3 4 4 3 3 2 2 2 2 4 8 6 11 12 13 13 14 14 14 14 15 15 15 16
2 2 2 2 2 2 2 2 2 2 2 2 2 2 2 1 1 1 1 2 2 5 5 3 2 2 3 3 5 4 4 10 13 13 13 14 14 14 14 15 15 15 15
2 2 2 2 2 1 2 2 2 2 2 2 1 2 2 2 1 1 2 2 3 4 5 3 3 4 5 5 8 6 5 12 12 13 14 14 14 14 14 15 15 16 16
2 2 2 2 2 2 2 2 2 2 2 2 2 2 2 2 2 2 2 3 3 3 6 6 4 4 5 5 6 5 5 5 6 12 14 14 14 14 15 15 15 16 16
2 2 2 2 3 2 2 2 2 2 2 2 2 2 3 2 3 3 3 3 4 4 5 8 5 5 6 5 5 6 6 6 5 11 13 14 14 14 15 15 15 15 15
2 2 2 3 3 3 3 3 3 3 3 3 3 3 3 3 3 3 3 3 3 4 4 6 6 5 4 4 5 6 6 5 6 8 11 12 13 14 14 14 14 14 14
2 3 3 3 3 3 3 2 2 3 3 3 3 3 3 4 4 4 4 4 4 4 4 5 5 5 4 4 4 5 6 4 6 6 8 9 12 13 14 14 14 14 14
3 3 3 3 3 2 3 3 2 3 3 4 4 4 4 5 7 5 4 4 4 4 4 5 5 5 5 4 4 4 6 6 6 4 4 5 6 5 6 10 12 13 14
2 3 3 3 3 3 4 4 3 3 3 4 3 3 4 5 6 7 9 8 7 6 5 5 5 6 6 5 5 5 5 6 6 3 4 6 4 5 5 5 11 14 14
2 3 3 3 3 3 4 4 4 3 3 3 3 3 3 4 5 3 6 8 8 10 10 7 7 7 7 6 6 6 6 6 7 5 5 7 4 6 5 7 14 15 13
2 2 3 3 3 3 5 5 4 2 3 3 4 3 4 4 4 4 4 4 4 6 7 6 6 7 6 6 5 6 7 7 6 4 3 6 5 5 6 5 11 12 11
2 2 2 2 3 3 5 5 4 2 2 3 3 3 4 4 6 6 4 4 5 5 7 9 9 9 10 11 9 5 4 5 6 4 2 3 4 5 5 5 6 9 10
2 2 2 3 3 3 5 5 4 2 2 2 2 3 5 5 6 6 4 3 5 5 5 5 5 6 6 7 9 5 4 4 5 4 2 2 3 4 5 3 3 4 5
Wind_Direction
66 61 54 50 37 32 28 9 14 11 6 7 7 6 360 5 19 33 53 54 40 32 24 17 15 15 12 14 14 12 4 2 355 357 355 355 351 345 332 324 322 322 319
63 60 57 47 34 25 20 16 17 16 6 6 4 356 350 6 21 17 31 36 39 28 13 9 5 359 358 0 1 2 360 357 355 354 349 347 347 340 335 331 327 324 320
71 67 60 50 28 16 25 22 20 23 11 6 4 358 351 357 10 7 8 17 30 28 17 6 6 1 356 354 355 356 353 351 349 348 345 342 340 337 330 327 325 325 324
69 72 63 45 25 20 28 26 30 24 15 9 352 337 335 340 353 356 14 35 28 23 26 26 13 4 359 355 352 349 345 342 339 338 336 335 334 330 326 324 324 321 319
67 73 62 48 41 29 18 18 26 29 21 4 338 328 325 314 315 345 25 29 32 39 44 31 21 11 5 1 355 349 344 340 336 333 332 334 334 332 328 328 324 320 317
65 69 67 50 44 48 30 30 25 18 20 354 336 325 301 278 281 345 13 34 43 48 41 29 22 11 5 358 352 347 342 336 330 325 325 325 324 324 323 324 323 322 318
64 70 71 68 55 55 41 41 42 25 4 359 5 335 309 282 234 166 84 48 48 44 30 29 28 15 352 348 344 340 337 335 333 327 323 320 318 317 317 317 316 316 317
69 68 81 79 68 68 49 38 48 41 360 15 28 340 333 334 353 357 23 22 26 22 15 9 20 4 356 344 335 336 333 332 330 329 327 323 320 317 316 314 314 314 314
88 75 76 87 77 85 108 46 64 67 21 332 3 55 25 302 325 318 318 337 3 357 342 341 353 346 338 338 326 333 331 331 330 329 327 325 325 320 318 316 316 316 316
103 88 78 79 105 87 96 5 42 44 101 297 325 343 293 277 306 315 316 329 340 326 317 329 328 319 324 330 326 327 329 329 328 327 326 324 322 321 319 316 315 313 314
117 103 112 100 125 133 130 104 43 353 228 224 254 310 313 316 268 253 287 308 314 302 309 308 304 302 314 323 311 325 330 328 325 323 322 321 319 319 318 318 318 315 312
139 155 153 139 167 167 171 191 206 238 247 254 249 238 245 265 280 272 278 296 298 296 300 289 285 286 298 314 322 332 330 327 323 322 320 318 317 316 316 316 315 313 313
182 191 176 176 197 210 205 201 208 228 235 239 239 242 251 257 272 277 282 291 294 295 286 286 285 294 307 314 315 323 319 318 318 317 316 315 315 314 314 314 313 312 311
191 187 188 198 207 218 235 206 215 227 233 240 255 245 249 257 264 268 271 292 300 295 285 285 303 294 309 310 306 316 306 311 312 312 311 311 312 312 312 311 310 309 308
188 183 197 210 214 220 223 216 218 233 231 236 241 243 249 256 262 270 271 262 271 290 291 283 296 306 312 304 301 299 293 304 308 309 308 309 308 309 309 308 308 306 306
188 183 194 204 209 220 222 223 228 235 235 244 245 245 260 261 262 268 267 267 258 264 276 284 291 298 304 305 303 302 294 305 303 305 306 305 304 306 308 308 306 306 305
189 194 197 206 213 218 223 232 244 239 234 251 267 257 264 270 264 262 259 259 261 264 274 285 287 297 296 297 300 298 294 288 290 300 303 303 304 305 306 307 306 305 304
198 204 206 214 223 228 226 229 246 249 234 239 251 257 265 272 265 258 255 259 264 263 269 285 294 295 291 292 295 297 302 300 292 297 302 304 305 306 306 306 305 304 303
203 211 213 217 220 222 223 230 237 250 246 244 245 248 255 258 266 265 263 267 269 275 275 281 290 290 290 295 299 300 296 293 297 298 302 301 303 306 306 305 305 305 305
212 216 219 223 224 224 222 226 236 247 254 253 249 251 254 252 258 264 263 260 267 273 277 279 285 290 291 292 291 295 301 299 298 300 296 298 301 305 305 305 305 306 306
228 220 221 226 225 226 219 219 232 248 257 256 249 249 251 255 261 267 272 269 270 273 277 280 284 290 290 295 290 291 296 301 295 285 292 294 297 292 295 300 303 305 305
226 219 222 223 228 236 234 241 247 247 259 260 260 264 260 257 263 277 281 282 278 276 279 278 281 283 284 289 292 296 299 304 298 289 301 296 293 291 292 288 301 306 306
230 227 225 220 228 232 235 245 254 259 251 256 263 266 273 274 278 267 283 288 282 277 274 273 275 278 281 286 291 292 289 289 285 290 300 292 294 290 291 298 305 306 307
224 229 229 223 230 236 235 244 257 258 253 262 264 268 269 271 272 273 279 284 285 286 281 276 268 275 281 283 275 279 284 292 289 286 283 285 293 292 296 294 302 304 313
227 234 232 228 228 238 237 246 257 237 247 261 267 275 278 271 276 289 287 285 288 289 292 287 285 289 295 297 296 294 295 298 298 297 287 280 294 304 296 288 298 313 322
223 231 240 229 224 228 241 250 259 229 249 266 275 274 278 283 281 291 283 277 284 289 297 302 301 301 299 297 301 291 283 287 295 295 294 307 300 318 309 292 300 317 319